Welcome to the New NWS' Forecast!
Most changes are behind the scenes, but click here for differences you might notice.
Latest weather observations around

Norwood, Norwood Memorial Airport (KOWD)

Using English Units (Switch to International System of Units)
Date/ Time (EDT) Wind (mph) Vis. (mi) Weather Sky Cond. Temp (°F) Rel. Humidity Wind Chill (°F) Heat Index (°F) Pressure Precip. (in)
Air Dwpt 6 hour Altimeter (inHg) Sea level (inHg) 1 hr 3 hr 6 hr
Max Min
Sep 24 12:53 3 10 Clear CLR 87 67     51%   90 30.03 30.03      
Sep 24 11:53 ENE 5 10 Clear CLR 84 67     57%   87 30.04 30.04      
Sep 24 10:53 Calm 10 Clear CLR 81 67     62%   83 30.05 30.05      
Sep 24 09:53 Calm 10 Clear CLR 78 66     67%   79 30.06 30.06      
Sep 24 08:53 Calm 10 Clear CLR 70 64     81%     30.07 30.06      
Sep 24 07:53 Calm 10 Clear CLR 62 60     93%     30.06 30.06      
Sep 24 06:53 Calm 10 Clear CLR 56 55     97%     30.06 30.06      
Sep 24 06:29 Calm 0.75 Fog/Mist VV003 54 53     97%     30.05        
Sep 24 06:20 Calm 1 Fog/Mist VV003 54 53     97%     30.05        
Sep 24 06:07 Calm 1.75 Fog/Mist CLR 55 53     93%     30.05        
Sep 24 05:53 Calm 10 Clear CLR 57 55     93%     30.04 30.04      
Sep 24 05:33 Calm 3 Fog/Mist SCT003 56 54     93%     30.04        
Sep 24 05:27 Calm 1.25 Fog/Mist SCT003 55 54     96%     30.04        
Sep 24 05:15 Calm 0.75 Fog/Mist VV003 54 54     100%     30.03        
Sep 24 05:12 Calm 1.5 Fog/Mist FEW004 55 54     96%     30.03        
Sep 24 04:57 Calm 4 Fog/Mist SCT002 56 55     97%     30.03        
Sep 24 04:53 Calm 1.25 Fog/Mist SCT002 56 55     97%     30.03 30.03      
Sep 24 04:35 Calm 0.75 Fog/Mist VV002 54 53     97%     30.03        
Sep 24 04:23 Calm 0.75 Fog/Mist VV003 55 54     96%     30.03        
Sep 24 04:20 Calm 1.25 Fog/Mist FEW002 56 55     97%     30.03        
Sep 24 04:08 Calm 9 Partly Cloudy SCT002 56 55     97%     30.03        
Sep 24 02:53 Calm 0.5 Fog VV001 56 55     97%     30.02 30.01      
Sep 24 02:38 Calm 0.5 Fog VV001 56 55     97%     30.02        
Sep 24 02:30 Calm 1.5 Fog/Mist OVC002 56 56     100%     30.02        
Sep 24 02:24 Calm 9 Cloudy OVC002 57 56     96%     30.02        
Sep 24 02:16 Calm 2 Fog/Mist OVC002 57 56     96%     30.02        
Sep 24 01:53 Calm 0.75 Fog/Mist VV001 57 56     96%     30.02 30.01      
Sep 24 00:53 Calm 0.25 Fog VV001 56 56     100%     30.03 30.02      
Sep 24 00:48 Calm 0.75 Fog/Mist VV002 57 55     94%     30.03        
Sep 24 00:45 Calm 2.5 Fog/Mist BKN002 57 56     96%     30.03        
Sep 23 23:53 Calm 0.25 Fog VV002 57 57     100%     30.03 30.03      
Sep 23 23:17 Calm 0.75 Fog/Mist VV002 58 58     100%     30.03        
Sep 23 23:15 Calm 1.5 Fog/Mist SCT002 59 58     96%     30.03        
Sep 23 23:12 Calm 6 Fog/Mist SCT002 59 57     93%     30.03        
Sep 23 22:53 Calm 3 Fog/Mist OVC002 58 57     97%     30.04 30.03      
Sep 23 22:51 Calm 2.5 Fog/Mist OVC002 57 57     100%     30.04        
Sep 23 22:31 Calm 3 Fog/Mist OVC002 60 59     96%     30.04        
Sep 23 22:23 Calm 2 Fog/Mist OVC002 59 59     100%     30.04        
Sep 23 22:05 Calm 0.75 Fog/Mist VV002 60 59     96%     30.04        
Sep 23 21:58 Calm 1.75 Fog/Mist FEW002 61 59     93%     30.04        
Sep 23 21:53 Calm 10 Clear CLR 60 60     100%     30.03 30.03      
Sep 23 20:53 Calm 10 Partly Cloudy SCT002 61 59     93%     30.03 30.03      
Sep 23 19:53 Calm 10 Clear CLR 64 62     93%     30.02 30.02      
Sep 23 18:53 Calm 8 Clear CLR 68 64     87%     30.01 30.01      
Sep 23 17:53 NE 5 10 Clear CLR 74 63     69%   74 30 29.99      
Sep 23 16:53 5 10 Clear CLR 78 63     60%   78 29.99 29.99      
Sep 23 15:53 7 10 Clear CLR 80 65     60%   82 30 29.99      
Sep 23 14:53 ENE 6 10 Clear CLR 79 65     62%   80 30 30      
Sep 23 13:53 ENE 7 10 Mostly Clear FEW028 81 67     62%   83 30 30      
Sep 23 12:53 N 8 10 Partly Cloudy SCT035 77 66     69%   78 30.02 30.01      
Sep 23 12:34 N 7 10 Mostly Clear FEW019 77 66     69%   78 30.01        
Sep 23 11:53 NNE 7 10 Cloudy OVC019 73 63     71%   73 30.02 30.01      
Sep 23 10:53 NNE 5 10 Cloudy OVC016 69 60     73%     30.04 30.04      
Sep 23 10:33 N 7 10 Clear   69 60     73%     30.04        
Sep 23 10:21 N 7 10 Clear   68 60     76%     30.03        
Sep 23 09:53 N 6 10 Clear   67 60     79%     30.03 30.03      
Sep 23 09:26 5 10 Cloudy OVC016 67 60     79%     30.03        
Sep 23 08:53 N 5 10 Cloudy OVC011 66 62     87%     30.02 30.01      
Sep 23 07:53 NNE 5 10 Cloudy OVC008 64 62     93%     30 30     0
Sep 23 06:53   10 Cloudy OVC008 64 62     93%     29.99 29.99 0    
Sep 23 05:53 N 7 9 Light Rain OVC008 63 61     93%     29.99 29.99 0    
Sep 23 04:53 N 8 10 Cloudy OVC008 64 61     90%     29.99 29.98 0 0  
Sep 23 04:12 N 7 4 Light Rain and Fog/Mist OVC008 63 62     97%     29.99   0    
Sep 23 03:53 N 9 3 Light Rain and Fog/Mist OVC011 63 61     93%     29.99 29.98 0    
Sep 23 03:25 N 9 5 Light Rain and Fog/Mist OVC010 63 61     93%     29.98   0    
Sep 23 02:53 N 6 6 Light Rain and Fog/Mist BKN007 OVC012 64 62     93%     29.99 29.98 0    
Sep 23 01:53 NNE 9 3 Light Rain and Fog/Mist OVC007 64 62     93%     29.98 29.98 0   0
Sep 23 01:44 N 8 2.5 Light Rain and Fog/Mist OVC007 64 62     93%     29.98   0    
Sep 23 00:53 N 9 3 Light Rain and Fog/Mist OVC006 64 62     93%     29.98 29.98 0    
Sep 23 00:28 NNE 9 3 Fog/Mist OVC006 64 63     96%     29.99   0    
Sep 22 23:53 NNE 9 2 Light Rain and Fog/Mist OVC006 64 63     96%     29.98 29.98 0    
Sep 22 23:16 N 8 2 Light Rain and Fog/Mist OVC005 64 62     93%     29.99   0    
Sep 22 22:53 N 8 1.5 Light Rain and Fog/Mist OVC005 64 62     93%     29.99 29.98 0 0  
Sep 22 22:40 N 9 1.75 Light Rain and Fog/Mist OVC006 64 62     93%     29.99   0    
Sep 22 22:04 N 8 2 Fog/Mist OVC006 63 61     93%     29.99        
Sep 22 21:53 N 10 3 Fog/Mist OVC006 63 61     93%     29.99 29.99      
Sep 22 20:53 N 8 5 Fog/Mist OVC008 62 59     90%     29.99 29.99 0    
Sep 22 20:29 N 9 4 Light Rain and Fog/Mist OVC009 62 59     90%     29.99   0    
Sep 22 19:53 N 10 6 Light Rain and Fog/Mist OVC011 61 59     93%     29.99 29.98 0   0
Sep 22 19:24 N 14 3 Light Rain and Fog/Mist OVC009 61 59     93%     29.99   0    
Sep 22 19:00 N 11 3 Fog/Mist OVC010 62 59     90%     29.98        
Sep 22 18:53 NNE 17 2 Fog/Mist OVC010 62 59     90%     29.98 29.98      
Sep 22 18:15 N 10 2 Fog/Mist OVC010 62 60     93%     29.99        
Sep 22 17:53 N 14 2 Fog/Mist OVC009 62 60     93%     29.99 29.98 0    
Sep 22 17:48 N 11 2.5 Fog/Mist OVC009 63 61     94%     29.99   0    
Sep 22 17:29 N 13 3 Fog/Mist OVC009 62 59     90%     29.99   0    
Sep 22 17:15 NNE 10 2.5 Light Rain and Fog/Mist OVC010 62 59     90%     29.99   0    
Sep 22 17:05 NNE 11 1.5 Light Rain and Fog/Mist OVC010 61 59     93%     29.99   0    
Sep 22 16:53 N 11 2.5 Light Rain and Fog/Mist BKN011 OVC014 61 59     93%     29.99 29.98 0 0  
Sep 22 16:29 N 13 1.75 Light Rain and Fog/Mist OVC011 62 59     90%     29.99   0    
Sep 22 15:53 N 11 4 Fog/Mist OVC013 62 59     90%     29.98 29.98 0    
Sep 22 15:23 NNE 11 2 Light Rain and Fog/Mist OVC012 62 58     86%     29.99   0    
Sep 22 15:16 N 15 1.75 Light Rain and Fog/Mist OVC012 62 58     86%     29.99   0    
Sep 22 14:53 NNE 10 8 Light Rain OVC013 62 58     86%     29.99 29.98 0    
Sep 22 13:53 N 11 6 Light Rain and Fog/Mist OVC013 61 58     90%     30 29.99 0   0
Sep 22 12:53 N 10 10 Cloudy OVC012 61 58     90%     30 30 0    
Sep 22 12:41 N 11 3 Light Rain and Fog/Mist OVC012 60 57     90%     30.01   0    
Sep 22 12:24 N 10 1.75 Rain and Fog/Mist OVC013 60 57     90%     30.01   0    
Sep 22 11:53 N 9 8 Light Rain OVC014 61 57     87%     30 30 0    
Sep 22 11:51 NNE 13 6 Light Rain and Fog/Mist OVC014 61 57     88%     30   0    
Sep 22 11:38 N 11 2 Light Rain and Fog/Mist OVC014 60 56     86%     30   0    
Sep 22 10:53 N 18 9 Light Rain OVC014 61 56     83%     30.01 30.01 0 0  
Sep 22 10:44 NNE 11 8 Light Rain OVC015 61 55     81%     30   0    
Sep 22 10:23 N 16 10 Cloudy OVC014 61 55     81%     30.01        
Sep 22 09:53 N 15 10 Cloudy OVC015 61 55     81%     30.01 30      
Sep 22 08:53 N 14 10 Cloudy OVC017 61 55     81%     30 30      
Sep 22 08:03 N 10 10 Clear   60 56     86%     30        
Sep 22 07:53 N 10 10 Clear   60 56     86%     30 30 0    
Sep 22 06:53 NNE 13 10 Cloudy OVC012 59 56     90%     30 30 0    
Sep 22 05:53 N 13 9 Light Rain OVC012 60 58     93%     29.99 29.99 0    
Sep 22 05:39 N 13 2 Light Rain and Fog/Mist BKN013 OVC019 60 57     90%     29.98   0    
Sep 22 05:36 N 10 1.75 Rain and Fog/Mist SCT009 OVC016 60 57     90%     29.99   0    
Sep 22 05:29 NNE 14 1.75 Rain and Fog/Mist BKN013 OVC018 60 57     90%     29.99   0    
Sep 22 05:06 NNE 10 2.5 Light Rain and Fog/Mist OVC018 60 57     90%     29.99   0    
Sep 22 04:53 NNE 16 3 Light Rain and Fog/Mist OVC020 61 57     87%     29.99 29.99 0 0  
Sep 22 03:53 N 11 10 Cloudy BKN020 OVC029 63 56     78%     29.99 29.99      
Sep 22 02:53 N 15 10 Cloudy FEW018 OVC028 63 56     78%     29.99 29.99      
Sep 22 01:53 N 13 10 Cloudy OVC035 65 56     73%     30.01 30.01 0   0
Sep 22 01:24 NNE 14 10 Cloudy SCT026 OVC034 64 56     75%     30.01   0    
Sep 22 01:04 NNE 13 9 Light Rain BKN028 OVC035 65 56     73%     30.02   0    
Sep 22 00:53 NNE 15 10 Light Rain OVC033 66 55     68%     30.02 30.01 0    
Sep 21 23:53 NNE 14 10 Cloudy BKN039 OVC050 68 52     57%     30.01 30.01      
Sep 21 22:53 NNE 16 10 Cloudy FEW044 OVC060 68 53     59%     30.01 30.01      
Sep 21 21:53 NNE 9 10 Cloudy OVC046 68 53     59%     30.02 30.02      
Sep 21 20:53 N 8 10 Cloudy OVC044 69 54     59%     30.01 30.01      
Sep 21 19:53 6 10 Cloudy OVC042 70 53     55%     30.01 30.01      
Sep 21 18:53 N 9 10 Partly Cloudy SCT050 70 52     53%     29.99 29.99      
Sep 21 17:53 N 13 10 Clear CLR 72 52     49%   71 29.99 29.99      
Sep 21 15:53 NNE 11 10 Clear CLR 75 52     45%   74 29.98 29.98      
Sep 21 14:53 NNE 18 10 Clear CLR 73 50     44%   72 30 29.99      
Sep 21 13:53 NNE 17 10 Clear CLR 72 49     44%   71 30 30 0   0
Sep 21 12:53   10 Light Rain CLR 72 52     49%   71 30.01 30.01 0    
Jun 12 05:53 Calm 10 Clear CLR 69 65     87%     29.96 29.96      
Jun 10 22:53 SSW 7 10 Clear   73 56     55%   73 29.99 29.99      
Jun 10 15:53 S 13 10 Clear CLR 83 55     38%   82 29.91 29.91      
Jun 08 08:53 Calm 10 Clear CLR 66 55     68%     30.04 30.04      
Jun 07 22:53 Calm 10 Clear CLR 52 50     93%     30.02 30.02      
Jun 07 11:53 NE 8 10 Cloudy OVC075 64 50     60%     29.96 29.96      
Jun 06 13:35 NNE 14 6 Light Rain and Fog/Mist SCT009 SCT018 OVC039 49 47     93% 44   29.83   0    
Jun 06 11:53 NE 11 1.25 Light Rain and Fog/Mist BKN007 OVC014 50 48     93% 46   29.84 29.83 0    
Notice The following observation data may not be complete
Jun 06 05:05   1.75 Fog/Mist OVC006          %              
Jun 05 21:53 ENE 9 2.5 Light Rain and Fog/Mist OVC006 54 53     97%     29.84 29.83 0    
Jun 05 18:53 ENE 8 1.75 Fog/Mist OVC006 55 53     93%     29.83 29.82